Location: *
(51.1248°S, 108.4023°W)
Time: 09:25:21
(UTC+00:00)

Envisat - Pass Details

Date: 28 September 2021
Orbit: 764 x 766 km, 98.2° (Epoch: 27 October)

Event Time Altitude Azimuth Distance (km) Brightness Sun altitude
Rises 09:16:27 0° 79° (E) 3,250 6.6 -29.7°
Reaches altitude 10° 09:20:10 10° 107° (ESE) 2,333 6.2 -29.4°
Maximum altitude 09:22:12 12° 131° (SE) 2,171 6.2 -29.2°
Drops below altitude 10° 09:24:15 10° 154° (SSE) 2,343 6.4 -29.0°
Sets 09:28:00 0° 182° (S) 3,278 6.9 -28.6°
